Simultaneous Nadir Overpasses (SNOs) Predictions

Prediction of SNOs between GOES-14 and AQUA Satellite Orbit:

Table of predicted SNOs for the next 14.0 days since TLE Epoch: 7/26/2018
Index Date Time (GOES-14) GOES-14 Lat,Lon AQUA Lat,Lon Distance(km) Time Diff (sec)
1 07/27/2018 20:33:40 0.27,-104.56 0.37,-104.17 45.27 80
2 07/29/2018 20:21:32 0.27,-104.58 0.97,-101.22 380.98 80
3 07/30/2018 08:40:09 -0.29,-104.43 0.13,-106.39 222.69 80
4 08/01/2018 08:30:41 -0.29,-104.44 -0.48,-103.44 113.09 80
5 08/01/2018 20:49:27 0.31,-104.59 -0.54,-108.65 461.74 80
6 08/03/2018 08:18:34 -0.29,-104.45 -1.14,-100.51 448.74 80
7 08/03/2018 20:37:19 0.31,-104.60 0.07,-105.71 125.89 80
8 08/05/2018 20:27:51 0.31,-104.61 0.68,-102.77 209.53 80
9 08/06/2018 08:49:08 -0.33,-104.47 0.43,-107.93 393.22 80
10 08/08/2018 08:37:01 -0.34,-104.48 -0.24,-105.00 58.43 80




NCC Satellite Simultaneous Nadir Overpasses (SNOs) Prediction Service
